User: anonymous   Login
Location: Владивосток
(43.1151°N, 131.8856°E)
Time: 13:55:38
(UTC+10:00)
Language:

COSMOS 2251 DEB - Orbit

View from above orbital plane
View from above orbital plane
View from above satellite
View from above satellite

Ground track
Ground track

The orbit data is extracted from the following two-line orbital elements,

1 36048U 93036AXK 25133.60038295  .00000688  00000-0  23751-3 0  9992
2 36048  74.0563 331.1134 0026247  78.3574 339.6182 14.37480687824395
Epoch (UTC): 13 May 2025 14:24:33
Eccentricity: 0.0026247
inclination: 74.0563°
perigee height: 748 km
apogee height: 785 km
right ascension of ascending node: 331.1134°
argument of perigee: 78.3574°
revolutions per day: 14.37480687
mean anomaly at epoch: 339.6182°
orbit number at epoch: 82439

The dashed part of the orbit path shows where the satellite is in the earth's shadow,  

DLR